[[{"header":{"parameterUnit":"m.s-1","parameterCategory":1,"la1":30.2991,"la2":30.254,"lo1":-89.0895,"lo2":-89.0444,"dy":0.0017,"dx":0.0017,"nx":28,"ny":28,"refTime":"2024-08-22T21:00:00:Z","depth":0,"parameterNumber":2,"parameterNumberName":"U-component_of_WINDS"},"data":[0,0,0,0,0,0,0,0,0,0,0,0,0,0,0,0,0,0,0,0,0,0,0,0,0,0,0,0,0,0,0,0,0,0,0,0,0,0,0,0,0,0,0,0,0,0,0,0,0,0,0,0,0,0,0,0,0,0,-5.6968,-5.6969,0,-5.7007,-5.7008,-5.7008,-5.6868,-5.6863,-5.6859,-5.6855,-5.6894,-5.6899,-5.6904,0,0,0,0,0,0,0,0,0,0,0,0,0,-5.677,-5.6775,-5.6968,-5.6969,-5.6969,-5.7007,-5.7008,-5.7008,-5.6868,-5.6863,-5.6858,-5.6853,-5.6893,-5.6899,-5.6904,0,0,0,0,0,0,0,0,0,0,0,0,0,-5.6838,-5.6776,-5.6968,-5.6904,-5.6899,-5.7007,-5.7008,-5.7008,-5.6869,-5.6863,-5.6857,-5.6851,-5.6891,-5.6898,-5.6905,-5.7077,0,0,-5.6928,-5.6931,0,0,0,0,0,0,0,0,-5.6834,-5.6845,-5.6913,-5.6909,-5.6903,-5.6926,-5.6952,-5.7031,-5.6871,-5.6881,-5.6855,-5.6848,-5.691,-5.6915,-5.6936,-5.7079,-5.7081,-5.6929,-5.6933,-5.6936,-5.6938,0,0,0,0,0,0,0,-5.6829,-5.6842,-5.6983,-5.6914,-5.6908,-5.6872,-5.6875,-5.6966,-5.693,-5.6879,-5.6869,-5.6876,-5.6906,-5.693,-5.6936,-5.7081,-5.6928,-5.6935,-5.694,-5.6943,-5.7363,-5.737,0,0,0,0,0,0,-5.6833,-5.684,-5.6982,-5.6985,-5.6852,-5.6881,-5.6884,-5.6925,-5.6929,-5.6923,-5.6881,-5.6869,-5.692,-5.6928,-5.6937,-5.7136,-5.6936,-5.6943,-5.6948,-5.7357,-5.7365,-5.7372,0,0,0,0,0,0,-5.683,-5.6848,-5.6981,-5.6909,-5.6924,-5.6891,-5.6938,-5.6929,-5.6952,-5.693,-5.6923,-5.6912,-5.6915,-5.6927,-5.7043,-5.7135,-5.6947,-5.6953,-5.7349,-5.7359,-5.7369,-5.7536,0,0,0,0,0,0,-5.6825,-5.6847,-5.6912,-5.6912,-5.6928,-5.7087,-5.6944,-5.6934,-5.6966,-5.695,-5.6957,-5.6952,-5.6911,-5.7032,-5.705,-5.7142,-5.6959,-5.734,-5.7353,-5.7365,-5.7522,-5.7551,-5.7575,0,0,0,0,0,-5.6818,-5.6959,-5.6917,-5.6935,-5.7009,-5.7092,-5.7101,-5.7052,-5.6974,-5.7039,-5.7024,-5.6952,-5.7123,-5.7045,-5.7064,-5.716,-5.7334,-5.735,-5.7364,-5.751,-5.7545,-5.7575,0,0,0,0,0,0,-5.6971,-5.6957,-5.691,-5.7055,-5.7076,-5.7068,-5.7148,-5.7091,-5.7134,-5.7117,-5.7054,-5.7056,-5.7183,-5.7183,-5.7097,-5.7325,-5.7215,-5.7235,-5.732,-5.7353,-5.7379,-5.7374,-5.6965,0,0,0,0,0,-5.7021,-5.709,-5.7075,-5.7204,-5.7217,-5.7182,-5.7216,-5.7176,-5.7194,-5.7202,-5.7196,-5.7217,-5.7274,-5.7314,-5.7366,-5.7523,-5.7521,-5.7598,-5.7624,-5.7646,-5.7663,-5.7743,-5.7776,-5.7422,-5.7422,-5.7422,0,0,-5.7126,-5.7127,-5.7175,-5.7235,-5.7246,-5.7317,-5.719,-5.7272,-5.7323,-5.7215,-5.7322,-5.732,-5.7338,-5.7474,-5.7534,-5.7478,-5.7761,-5.7665,-5.7683,-5.7688,-5.7762,-5.7795,-5.7825,-5.7432,-5.743,-5.7429,0,0,-5.7353,-5.7363,-5.7469,-5.7483,-5.7502,-5.7477,-5.7504,-5.7505,-5.7498,-5.7606,-5.7525,-5.7587,-5.7689,-5.7704,-5.7726,-5.7959,-5.7893,-5.7978,-5.8115,-5.8194,-5.8221,-5.8246,-5.8326,-5.8356,-5.7995,-5.7996,-5.7996,0,-5.7481,-5.7586,-5.7532,-5.7618,-5.7646,-5.7551,-5.7658,-5.7674,-5.771,-5.773,-5.7668,-5.7793,-5.7799,-5.7936,-5.7993,-5.8015,-5.804,-5.7975,-5.8222,-5.8246,-5.8268,-5.8343,-5.8374,-5.8005,-5.8004,-5.8003,-5.8002,0,-5.774,-5.7815,-5.7899,-5.7934,-5.7972,-5.8069,-5.8028,-5.8073,-5.803,-5.8012,-5.8122,-5.8126,-5.8176,-5.8207,-5.8166,-5.8338,-5.8303,-5.8233,-5.812,-5.8312,-5.8382,-5.8411,-5.802,-5.8016,-5.8013,-5.8011,0,0,-5.8062,-5.8067,-5.8098,-5.8112,-5.8126,-5.8182,-5.8274,-5.8323,-5.8361,-5.8389,-5.8463,-5.8552,-5.8486,-5.8511,-5.8471,-5.8541,-5.8721,-5.8462,-5.8461,-5.8507,-5.8908,-5.8958,-5.8993,-5.8679,-5.8685,-5.8689,-5.8905,0,-5.8283,-5.8439,-5.8393,-5.855,-5.8617,-5.8528,-5.8608,-5.8624,-5.861,-5.8664,-5.8648,-5.8711,-5.8622,-5.8635,-5.8701,-5.8686,-5.8801,-5.867,-5.8745,-5.8749,-5.874,-5.903,-5.9083,-5.9287,-5.8932,-5.8937,-5.894,0,-5.856,-5.8598,-5.8762,-5.8762,-5.8788,-5.8861,-5.8901,-5.8955,-5.8972,-5.8956,-5.8984,-5.893,-5.9019,-5.8909,-5.9029,-5.8942,-5.897,-5.8968,-5.8974,-5.8977,-5.8854,-5.9037,-5.9351,-5.938,-5.8984,-5.898,-5.8977,0,-5.8774,-5.8867,-5.8976,-5.8991,-5.8996,-5.9048,-5.9053,-5.9063,-5.9095,-5.9131,-5.9151,-5.9197,-5.9222,-5.9258,-5.9217,-5.9142,-5.9343,-5.9231,-5.9331,-5.9332,-5.9375,-5.9372,-5.9695,-5.94,-5.9399,-5.9399,-5.9398,0,-5.9023,-5.9126,-5.9072,-5.9139,-5.9251,-5.9197,-5.9309,-5.9303,-5.9314,-5.9377,-5.9304,-5.9365,-5.9309,-5.9365,-5.9334,-5.9437,-5.945,-5.9438,-5.9428,-5.9443,-5.9444,-5.9458,-5.9442,-5.9407,-5.9405,-5.9403,-5.9402,0,-5.928,-5.9248,-5.9361,-5.9356,-5.9357,-5.944,-5.9435,-5.9496,-5.9477,-5.9558,-5.9574,-5.9544,-5.9606,-5.9569,-5.9633,-5.9612,-5.9745,-5.9717,-5.9739,-5.973,-5.9832,-5.9822,-6.0172,-6.0214,-5.9895,-5.9899,-5.9901,0,-5.9439,-5.9516,-5.9519,-5.9556,-5.9565,-5.9627,-5.9658,-5.9609,-5.9645,-5.9669,-5.9727,-5.9783,-5.9824,-5.9927,-5.991,-5.9958,-5.9928,-6.0048,-5.9935,-5.9947,-5.9926,-5.9921,-5.9927,-6.007,-6.0074,-6.0077,-6.0079,0,-5.9724,-5.9704,-5.9753,-5.9797,-5.9837,-5.9869,-5.9895,-5.993,-5.988,-5.9925,-5.9986,-6.0019,-6.0083,-6.0138,-6.0179,-6.0182,-6.0122,-6.0116,-6.0141,-6.0155,-6.0163,-6.0156,-5.9798,-6.0107,-6.0104,-6.0102,-6.0101,-6.0099,-5.9934,-5.9997,-6.0009,-6.0065,-6.008,-6.0106,-6.0162,-6.015,-6.0201,-6.0249,-6.0217,-6.0289,-6.0303,-6.0351,-6.0362,-6.0418,-6.0369,-6.0407,-6.0415,-6.0425,-6.0437,-6.0157,-6.0425,-6.0424,-6.0424,-6.0423,-6.0422,0,-6.0212,-6.0215,-6.0268,-6.0306,-6.035,-6.0291,-6.0317,-6.0358,-6.0422,-6.044,-6.0482,-6.0553,-6.0606,-6.0594,-6.0642,-6.0688,-6.0662,-6.0702,-6.0696,-6.0698,-6.0479,-6.0451,-6.0723,-6.0723,-6.0722,-6.0722,-6.0722,-6.0722,-6.0361,-6.0464,-6.0446,-6.0555,-6.0557,-6.0627,-6.0646,-6.0669,-6.0683,-6.0765,-6.0808,-6.08,-6.0806,-6.0853,-6.0899,-6.0894,-6.0913,-6.0963,-6.0948,-6.0743,-6.0714,-6.0685,-6.0658,-6.0969,-6.0969,-6.1161,-6.1163,-6.1165]},{"header":{"parameterUnit":"m.s-1","parameterCategory":1,"la1":30.2991,"la2":30.254,"lo1":-89.0895,"lo2":-89.0444,"dy":0.0017,"dx":0.0017,"nx":28,"ny":28,"refTime":"2024-08-22T21:00:00:Z","depth":0,"parameterNumber":3,"parameterNumberName":"V-component_of_WINDS"},"data":[0,0,0,0,0,0,0,0,0,0,0,0,0,0,0,0,0,0,0,0,0,0,0,0,0,0,0,0,0,0,0,0,0,0,0,0,0,0,0,0,0,0,0,0,0,0,0,0,0,0,0,0,0,0,0,0,0,0,1.0583,1.0583,0,1.0587,1.0587,1.0587,1.0575,1.0575,1.0575,1.0574,1.0576,1.0576,1.0577,0,0,0,0,0,0,0,0,0,0,0,0,0,1.0565,1.0565,1.0583,1.0583,1.0583,1.0587,1.0587,1.0587,1.0576,1.0575,1.0575,1.0574,1.0576,1.0576,1.0577,0,0,0,0,0,0,0,0,0,0,0,0,0,1.0571,1.0566,1.0583,1.0578,1.0578,1.0587,1.0587,1.0587,1.0576,1.0575,1.0575,1.0574,1.0576,1.0576,1.0577,1.059,0,0,1.0578,1.0578,0,0,0,0,0,0,0,0,1.0571,1.0572,1.0579,1.0578,1.0578,1.058,1.0581,1.0588,1.0576,1.0576,1.0574,1.0574,1.0577,1.0578,1.058,1.059,1.059,1.0578,1.0579,1.0579,1.0579,0,0,0,0,0,0,0,1.057,1.0572,1.0584,1.0579,1.0578,1.0575,1.0575,1.0582,1.058,1.0576,1.0575,1.0576,1.0577,1.0579,1.0579,1.059,1.0578,1.0579,1.0579,1.0579,1.0613,1.0614,0,0,0,0,0,0,1.0571,1.0571,1.0584,1.0584,1.0573,1.0576,1.0576,1.058,1.0579,1.0579,1.0577,1.0576,1.0578,1.0579,1.0579,1.0596,1.0579,1.0579,1.058,1.0613,1.0613,1.0614,0,0,0,0,0,0,1.0571,1.0572,1.0584,1.0578,1.0579,1.0577,1.0581,1.058,1.0582,1.058,1.0579,1.0579,1.0578,1.0579,1.0588,1.0596,1.0579,1.058,1.0612,1.0613,1.0614,1.0629,0,0,0,0,0,0,1.057,1.0572,1.0577,1.0578,1.0579,1.0593,1.0581,1.0581,1.0583,1.0582,1.0582,1.0581,1.0578,1.0587,1.0588,1.0596,1.058,1.0611,1.0612,1.0613,1.0627,1.063,1.0632,0,0,0,0,0,1.057,1.058,1.0578,1.0579,1.0586,1.0593,1.0594,1.059,1.0584,1.0589,1.0588,1.0581,1.0595,1.0588,1.059,1.0598,1.0611,1.0612,1.0613,1.0626,1.0629,1.0632,0,0,0,0,0,0,1.0579,1.058,1.0577,1.0589,1.0591,1.0591,1.0597,1.0593,1.0597,1.0595,1.059,1.059,1.06,1.06,1.0592,1.0611,1.0602,1.0603,1.0611,1.0614,1.0616,1.0616,1.0581,0,0,0,0,0,1.0583,1.059,1.059,1.06,1.0602,1.06,1.0602,1.06,1.0602,1.0602,1.0601,1.0603,1.0608,1.0611,1.0615,1.0628,1.0628,1.0634,1.0636,1.0638,1.0639,1.0647,1.065,1.0618,1.0618,1.0618,0,0,1.059,1.0592,1.0596,1.0602,1.0604,1.061,1.06,1.0607,1.0612,1.0603,1.0612,1.0612,1.0613,1.0625,1.0629,1.0624,1.0648,1.064,1.0641,1.0642,1.0649,1.0652,1.0654,1.0619,1.0619,1.0619,0,0,1.0607,1.0609,1.0618,1.062,1.0623,1.0622,1.0625,1.0626,1.0626,1.0635,1.0629,1.0634,1.0642,1.0644,1.0646,1.0666,1.066,1.0667,1.0679,1.0687,1.0689,1.0691,1.0699,1.0702,1.0669,1.0669,1.0669,0,1.0615,1.0626,1.0623,1.0631,1.0634,1.0628,1.0638,1.064,1.0643,1.0646,1.064,1.0652,1.0652,1.0664,1.0669,1.0671,1.0673,1.0667,1.0689,1.0691,1.0693,1.0701,1.0703,1.067,1.067,1.0669,1.0669,0,1.0636,1.0644,1.0651,1.0656,1.066,1.0669,1.0668,1.0672,1.0669,1.0669,1.0679,1.068,1.0684,1.0687,1.0684,1.0699,1.0696,1.069,1.068,1.0697,1.0704,1.0707,1.0671,1.0671,1.067,1.067,0,0,1.0658,1.0664,1.0666,1.0669,1.0673,1.0678,1.0687,1.0693,1.0697,1.0701,1.0708,1.0716,1.0711,1.0713,1.071,1.0717,1.0734,1.071,1.071,1.0715,1.0752,1.0756,1.0759,1.073,1.0731,1.0731,1.0752,0,1.0675,1.0691,1.069,1.0705,1.0712,1.0707,1.0715,1.0718,1.0718,1.0724,1.0724,1.073,1.0723,1.0724,1.0731,1.073,1.0741,1.0729,1.0737,1.0737,1.0737,1.0763,1.0767,1.0786,1.0754,1.0755,1.0755,0,1.0697,1.0703,1.0719,1.0723,1.0726,1.0733,1.0739,1.0745,1.0749,1.0748,1.0752,1.0749,1.0758,1.0748,1.0761,1.0753,1.0756,1.0757,1.0757,1.0757,1.0747,1.0764,1.0792,1.0795,1.0759,1.0759,1.0758,0,1.0712,1.0723,1.0735,1.0738,1.0743,1.0748,1.075,1.0754,1.0758,1.0763,1.0766,1.0772,1.0775,1.0779,1.0777,1.0771,1.0791,1.0781,1.0791,1.0791,1.0794,1.0794,1.0824,1.0797,1.0797,1.0797,1.0797,0,1.0731,1.0741,1.0742,1.0749,1.0761,1.0759,1.0771,1.0772,1.0776,1.0783,1.0778,1.0785,1.0783,1.0789,1.0788,1.0799,1.08,1.08,1.0799,1.08,1.08,1.0802,1.0801,1.0797,1.0797,1.0797,1.0797,0,1.0749,1.075,1.0763,1.0767,1.0769,1.0777,1.0781,1.0787,1.0788,1.0797,1.0799,1.08,1.0808,1.0807,1.0815,1.0814,1.0828,1.0826,1.0827,1.0827,1.0837,1.0836,1.0868,1.0873,1.0843,1.0843,1.0843,0,1.0761,1.0769,1.0776,1.0781,1.0784,1.0792,1.0797,1.0796,1.0801,1.0807,1.0813,1.0821,1.0827,1.0839,1.084,1.0847,1.0845,1.0856,1.0846,1.0847,1.0845,1.0845,1.0846,1.0858,1.0858,1.0858,1.0858,0,1.0783,1.0784,1.0791,1.0799,1.0806,1.0812,1.0817,1.0821,1.0821,1.0827,1.0836,1.0841,1.085,1.0858,1.0865,1.0866,1.0863,1.0862,1.0865,1.0865,1.0866,1.0866,1.0833,1.0861,1.0861,1.086,1.086,1.086,1.0799,1.0806,1.0812,1.0821,1.0826,1.0831,1.0838,1.0841,1.0848,1.0856,1.0856,1.0865,1.087,1.0879,1.0882,1.0889,1.0885,1.0889,1.089,1.0891,1.0892,1.0865,1.089,1.089,1.089,1.089,1.089,0,1.0821,1.0825,1.0833,1.0842,1.0849,1.0846,1.0853,1.0859,1.0868,1.0873,1.088,1.089,1.0898,1.09,1.0908,1.0914,1.0912,1.0916,1.0915,1.0916,1.0895,1.0892,1.0917,1.0917,1.0917,1.0917,1.0917,1.0917,1.0833,1.0846,1.0848,1.0863,1.0866,1.0877,1.0881,1.0886,1.0891,1.0903,1.091,1.0912,1.0916,1.0924,1.0932,1.0932,1.0935,1.094,1.0939,1.092,1.0917,1.0914,1.0912,1.094,1.094,1.096,1.096,1.096]}]]